Weather History for KLUM - October, 2013

Change the Weather History Date:

Wednesday, October 9, 2013

  Actual Average (KEAU) Record (KEAU)
Temperature  
Mean Temperature 63 °F 50 °F  
Max Temperature 74 °F 61 °F 81 °F (1938)
Min Temperature 52 °F 39 °F 19 °F (1895)
Degree Days  
Heating Degree Days 2 15  
Month to date heating degree days 123  
Since 1 July heating degree days 356  
Cooling Degree Days 0 0  
Month to date cooling degree days 0  
Year to date cooling degree days 575  
Growing Degree Days 13 (Base 50)    
Moisture  
Dew Point 47 °F    
Average Humidity 58    
Maximum Humidity 80    
Minimum Humidity 40    
Precipitation  
Precipitation 0.00 in 0.08 in 2.25 in (1904)
Month to date precipitation 0.84  
Year to date precipitation 26.64  
Snow  
Snow 0.00 in 0.00 in 0.80 in (1932)
Month to date snowfall 0.0  
Since 1 July snowfall 0.0  
Since 1 September snowfall 0.0  
Snow Depth -    
Sea Level Pressure  
Sea Level Pressure 30.06 in    
Wind  
Wind Speed 9 mph (SSE)    
Max Wind Speed 17 mph    
Max Gust Speed 23 mph    
Visibility 10 miles    
Events      
T = Trace of Precipitation, MM = Missing Value Source: NWS Daily Summary

Daily Weather History Graph

Daily Weather History Graph

Search for Another Location

Airport or City:

Trip Planner

Search our weather history database for the weather conditions in past years. The results will help you decide how hot, cold, wet, or windy it might be!

Date:

Astronomy

Oct. 09, 2013 Rise Set
Actual Time 7:15 AM CDT 6:32 PM CDT
Civil Twilight 6:46 AM CDT 7:02 PM CDT
Nautical Twilight 6:12 AM CDT 7:35 PM CDT
Astronomical Twilight 5:38 AM CDT 8:09 PM CDT
Moon 12:21 PM CDT (10/9) 9:57 PM CDT (10/9)
Length of Visible Light 12h 15m
Length of Day
11h 17m
Waxing Crescent, 25% of the Moon is Illuminated
Oct 9
Waxing Crescent
Oct 11
First Quarter
Oct 18
Full
Oct 26
Last Quarter
Nov 3
New

Hourly Weather History & Observations

Time (CDT) Temp. Dew Point Humidity Pressure Visibility Wind Dir Wind Speed Gust Speed Precip Events Conditions
12:15 AM 65.3 °F 41.9 °F 42% 29.98 in 10.0 mi South 15.0 mph 20.7 mph N/A   Clear
12:35 AM 64.6 °F 42.3 °F 44% 29.99 in 10.0 mi South 11.5 mph 18.4 mph N/A   Clear
12:55 AM 64.4 °F 42.8 °F 45% 30.00 in 10.0 mi South 12.7 mph 19.6 mph N/A   Clear
1:15 AM 64.4 °F 43.0 °F 46% 30.00 in 10.0 mi South 12.7 mph - N/A   Clear
1:35 AM 64.0 °F 43.3 °F 47% 30.01 in 10.0 mi South 10.4 mph 23.0 mph N/A   Clear
1:55 AM 63.0 °F 43.7 °F 49% 30.02 in 10.0 mi South 12.7 mph 19.6 mph N/A   Clear
2:15 AM 62.8 °F 44.1 °F 50% 30.02 in 10.0 mi South 10.4 mph - N/A   Clear
2:35 AM 62.6 °F 44.1 °F 51% 30.03 in 10.0 mi South 12.7 mph - N/A   Clear
2:55 AM 61.7 °F 44.6 °F 53% 30.03 in 10.0 mi South 9.2 mph - N/A   Clear
3:15 AM 61.2 °F 44.6 °F 54% 30.03 in 10.0 mi South 10.4 mph - N/A   Clear
3:35 AM 60.3 °F 45.0 °F 57% 30.03 in 10.0 mi South 8.1 mph - N/A   Clear
3:55 AM 59.2 °F 45.1 °F 60% 30.04 in 10.0 mi South 6.9 mph - N/A   Clear
4:15 AM 58.6 °F 45.3 °F 61% 30.04 in 10.0 mi SSE 5.8 mph - N/A   Clear
4:35 AM 57.7 °F 45.5 °F 64% 30.04 in 10.0 mi SSE 5.8 mph - N/A   Clear
4:55 AM 57.9 °F 45.7 °F 64% 30.04 in 10.0 mi SSE 5.8 mph - N/A   Clear
5:15 AM 57.2 °F 45.7 °F 65% 30.05 in 10.0 mi SSE 5.8 mph - N/A   Clear
5:35 AM 57.2 °F 46.0 °F 66% 30.05 in 10.0 mi SSE 5.8 mph - N/A   Clear
5:55 AM 56.7 °F 46.4 °F 69% 30.05 in 10.0 mi ESE 3.5 mph - N/A   Clear
6:15 AM 52.7 °F 46.0 °F 78% 30.05 in 10.0 mi ESE 4.6 mph - N/A   Clear
6:35 AM 53.1 °F 45.7 °F 76% 30.06 in 10.0 mi ESE 3.5 mph - N/A   Clear
6:55 AM 52.7 °F 45.5 °F 76% 30.05 in 10.0 mi ESE 3.5 mph - N/A   Clear
7:15 AM 52.0 °F 46.0 °F 80% 30.05 in 10.0 mi East 3.5 mph - N/A   Clear
7:35 AM 52.7 °F 45.9 °F 78% 30.06 in 10.0 mi ESE 3.5 mph - N/A   Clear
7:55 AM 53.1 °F 46.2 °F 78% 30.06 in 10.0 mi SSE 4.6 mph - N/A   Clear
8:15 AM 57.7 °F 48.0 °F 70% 30.06 in 10.0 mi SSE 8.1 mph - N/A   Clear
8:35 AM 58.5 °F 47.8 °F 68% 30.07 in 10.0 mi SSE 8.1 mph - N/A   Clear
8:55 AM 60.6 °F 48.4 °F 64% 30.08 in 10.0 mi SSE 8.1 mph - N/A   Clear
9:15 AM 61.7 °F 48.7 °F 62% 30.08 in 10.0 mi SSE 6.9 mph - N/A   Clear
9:35 AM 62.4 °F 48.7 °F 61% 30.08 in 10.0 mi South 8.1 mph - N/A   Clear
9:55 AM 63.5 °F 48.9 °F 59% 30.09 in 10.0 mi South 8.1 mph - N/A   Clear
10:15 AM 63.7 °F 49.1 °F 59% 30.09 in 10.0 mi South 12.7 mph 20.7 mph N/A   Clear
10:35 AM 64.9 °F 49.3 °F 57% 30.10 in 10.0 mi South 9.2 mph 17.3 mph N/A   Clear
10:55 AM 65.3 °F 49.1 °F 56% 30.10 in 10.0 mi South 11.5 mph 18.4 mph N/A   Clear
11:15 AM 66.4 °F 49.3 °F 54% 30.11 in 10.0 mi South 15.0 mph 19.6 mph N/A   Clear
11:35 AM 66.7 °F 49.6 °F 54% 30.10 in 10.0 mi South 15.0 mph 19.6 mph N/A   Clear
11:55 AM 68.9 °F 50.0 °F 51% 30.10 in 10.0 mi South 17.3 mph 23.0 mph N/A   Clear
12:15 PM 69.6 °F 50.2 °F 50% 30.09 in 10.0 mi South 10.4 mph 20.7 mph N/A   Clear
12:35 PM 69.8 °F 49.8 °F 49% 30.09 in 10.0 mi South 17.3 mph 20.7 mph N/A   Clear
12:55 PM 71.6 °F 50.0 °F 46% 30.08 in 10.0 mi South 15.0 mph 18.4 mph N/A   Clear
1:15 PM 72.3 °F 49.5 °F 44% 30.08 in 10.0 mi South 13.8 mph 19.6 mph N/A   Clear
1:35 PM 72.5 °F 48.7 °F 43% 30.07 in 10.0 mi South 10.4 mph 20.7 mph N/A   Clear
1:55 PM 73.0 °F 49.6 °F 44% 30.08 in 10.0 mi South 10.4 mph - N/A   Clear
2:15 PM 73.8 °F 50.0 °F 43% 30.08 in 10.0 mi South 11.5 mph 16.1 mph N/A   Clear
2:35 PM 73.9 °F 48.0 °F 40% 30.07 in 10.0 mi South 10.4 mph 20.7 mph N/A   Clear
2:55 PM 74.3 °F 48.9 °F 41% 30.07 in 10.0 mi SSE 10.4 mph 17.3 mph N/A   Clear
3:15 PM 74.1 °F 48.0 °F 40% 30.07 in 10.0 mi South 11.5 mph 17.3 mph N/A   Clear
3:55 PM 73.9 °F 48.2 °F 40% 30.07 in 10.0 mi SSE 10.4 mph - N/A   Clear
4:15 PM 73.9 °F 48.4 °F 40% 30.07 in 10.0 mi SSE 10.4 mph - N/A   Clear
4:35 PM 73.8 °F 48.2 °F 40% 30.06 in 10.0 mi South 9.2 mph - N/A   Clear
4:55 PM 73.4 °F 48.0 °F 41% 30.06 in 10.0 mi South 9.2 mph - N/A   Clear
5:15 PM 72.9 °F 47.1 °F 40% 30.06 in 10.0 mi SSE 10.4 mph - N/A   Clear
5:35 PM 72.1 °F 47.5 °F 41% 30.06 in 10.0 mi South 10.4 mph - N/A   Clear
5:55 PM 70.7 °F 48.4 °F 45% 30.06 in 10.0 mi South 6.9 mph - N/A   Clear
6:15 PM 68.2 °F 49.1 °F 50% 30.06 in 10.0 mi SE 5.8 mph - N/A   Clear
6:55 PM 63.7 °F 48.7 °F 58% 30.06 in 10.0 mi ESE 3.5 mph - N/A   Clear
7:15 PM 63.5 °F 49.1 °F 59% 30.06 in 10.0 mi ESE 3.5 mph - N/A   Clear
7:35 PM 61.2 °F 49.5 °F 65% 30.06 in 10.0 mi ESE 4.6 mph - N/A   Clear
7:55 PM 59.0 °F 49.8 °F 72% 30.06 in 10.0 mi ESE 3.5 mph - N/A   Clear
8:15 PM 58.8 °F 49.6 °F 72% 30.06 in 10.0 mi ESE 3.5 mph - N/A   Clear
8:35 PM 58.3 °F 49.6 °F 73% 30.06 in 10.0 mi ESE 3.5 mph - N/A   Clear
8:55 PM 57.2 °F 49.5 °F 75% 30.06 in 10.0 mi ESE 5.8 mph - N/A   Clear
9:15 PM 56.5 °F 48.9 °F 76% 30.06 in 10.0 mi ESE 4.6 mph - N/A   Clear
9:35 PM 56.5 °F 48.6 °F 75% 30.07 in 10.0 mi ESE 4.6 mph - N/A   Clear
9:55 PM 55.4 °F 48.2 °F 77% 30.07 in 10.0 mi East 3.5 mph - N/A   Clear
10:15 PM 55.9 °F 48.2 °F 75% 30.08 in 10.0 mi ESE 5.8 mph - N/A   Clear
10:35 PM 55.8 °F 47.5 °F 74% 30.08 in 10.0 mi ESE 4.6 mph - N/A   Clear
10:55 PM 55.9 °F 47.1 °F 72% 30.08 in 10.0 mi Calm Calm - N/A   Clear
11:15 PM 55.4 °F 46.8 °F 73% 30.08 in 10.0 mi ESE 3.5 mph - N/A   Clear
11:55 PM 52.9 °F 46.2 °F 78% 30.08 in 10.0 mi East 3.5 mph - N/A   Clear